This is the latest recevied weather packets stored in our database for station/object OH2HCY-3. If no packets are shown the sender has not sent any weather packets the latest 10 day(s).
| Time | Temp. | Humidity | Pressure | Rain* | Wind** | Luminosity | Snow |
|---|---|---|---|---|---|---|---|
| 1777847205 | 5.56° C | 85% | 1007.7 hPa | - | - | - | - |
| 1777846227 | 6.11° C | 85% | 1007.7 hPa | - | - | - | - |
| 1777845067 | 6.11° C | 85% | 1007.8 hPa | - | - | - | - |
| 1777844085 | 6.67° C | 84% | 1007.9 hPa | - | - | - | - |
| 1777843035 | 6.67° C | 84% | 1007.9 hPa | - | - | - | - |
| 1777841939 | 6.67° C | 83% | 1007.9 hPa | - | - | - | - |
| 1777840820 | 7.22° C | 81% | 1007.8 hPa | - | - | - | - |
| 1777839625 | 7.78° C | 80% | 1007.9 hPa | - | - | - | - |
| 1777838557 | 8.89° C | 76% | 1007.8 hPa | - | - | - | - |
| 1777837487 | 9.44° C | 75% | - | - | - | - | - |
| 1777837485 | 9.44° C | 75% | 1007.8 hPa | - | - | - | - |
| 1777836445 | 10° C | 73% | 1007.8 hPa | - | - | - | - |
| 1777835450 | 10° C | 72% | 1007.8 hPa | - | - | - | - |
| 1777834480 | 10.56° C | 71% | 1007.9 hPa | - | - | - | - |
| 1777833490 | 10.56° C | 71% | 1007.9 hPa | - | - | - | - |
| 1777832452 | 10.56° C | 70% | 1007.7 hPa | - | - | - | - |
| 1777831442 | 10.56° C | 69% | 1007.8 hPa | - | - | - | - |
| 1777830320 | 10.56° C | 69% | 1007.8 hPa | - | - | - | - |
| 1777829363 | 10.56° C | 69% | 1007.8 hPa | - | - | - | - |
| 1777828258 | 11.11° C | 69% | 1007.7 hPa | - | - | - | - |
| 1777827100 | 11.11° C | 68% | 1007.7 hPa | - | - | - | - |
| 1777825934 | 11.11° C | 67% | 1007.9 hPa | - | - | - | - |
| 1777824845 | 11.11° C | 66% | 1007.9 hPa | - | - | - | - |
| 1777823820 | 11.11° C | 66% | 1008.1 hPa | - | - | - | - |
| 1777822643 | 11.67° C | 66% | 1008.2 hPa | - | - | - | - |
* Rain since midnight (hover to see other rain measurements)
** Current wind speed in m/s (hover to see current wind gust speed)